Regional Weather Roundup
Issued by NWS Northern Indiana

Home | Current Version | Previous Version | Text Only | Print | Product List | Glossary Off
Versions: 1 2 3 4 5 6 7 8 9 10 11 12 13 14 15 16 17 18 19 20 21 22 23 24 25 26 27 28 29 30 31 32 33 34 35 36 37 38 39 40 41 42 43 44 45 46 47 48 49 50

000
ASUS43 KIWX 181100
RWRIWX

KIWX WEATHER ROUNDUP
NATIONAL WEATHER SERVICE NORTHERN INDIANA
700 AM EDT SAT APR 18 2015

NOTE: "FAIR" INDICATES FEW OR NO CLOUDS BELOW 12,000 FEET WITH NO
SIGNIFICANT WEATHER AND/OR OBSTRUCTIONS TO VISIBILITY.

* THESE STATIONS ARE NOT UNDER NWS QUALITY CONTROL. THEY ALSO MAY NOT
  REPORT WEATHER SUCH AS PRECIPITATION OR FOG.

INZ001>027-181200-
NORTHERN INDIANA

CITY           SKY/WX    TMP DP  RH WIND       PRES   REMARKS
GARY*          MOCLDY    59  45  58 SW6       30.03R
SOUTH BEND     CLEAR     54  43  66 CALM      30.04S
GOSHEN         CLEAR     52  44  74 CALM      30.03S
ANGOLA*        PTCLDY    48  46  93 CALM      30.04S
FORT WAYNE     PTCLDY    51  44  77 CALM      30.05R
PERU/GRISSOM   CLEAR     52  45  75 CALM      30.04R

$$
INZ028>050-181200-
CENTRAL INDIANA

CITY           SKY/WX    TMP DP  RH WIND       PRES   REMARKS
LAFAYETTE      CLEAR     48  46  93 NE3       30.04R
KOKOMO*        CLEAR     48  45  87 CALM      30.04R
MUNCIE*        CLEAR     49  43  80 CALM      30.04F
INDIANAPOLIS   PTCLDY    52  45  77 CALM      30.02S

$$
MIZ043>046-050>051-056>058-064>065-071>073-077>080-181200-
SOUTHWEST LOWER MICHIGAN

CITY           SKY/WX    TMP DP  RH WIND       PRES   REMARKS
BATTLE CREEK   MOCLDY    56  42  59 S5        30.03S
BENTON HARBOR  CLEAR     57  46  66 W5        30.02S
COLDWATER*     MOCLDY    50  45  81 CALM      30.03S
HILLSDALE*     PTCLDY    56  42  59 CALM      30.04S
HOLLAND        PTCLDY    53  43  68 W5        30.03R
GRAND RAPIDS   MOCLDY    48  41  76 CALM      30.03R
KALAMAZOO      PTCLDY    48  44  86 S3        30.03S
STURGIS*       PTCLDY    54  45  71 CALM      30.03S
THREE RIVERS*  FAIR      51  45  80 S3        30.03F

$$
OHZ001>008-015>018-024>025-181200-
NORTHWEST OHIO

CITY           SKY/WX    TMP DP  RH WIND       PRES   REMARKS
DEFIANCE       MOCLDY    50  45  83 CALM      30.04S
FINDLAY        PTCLDY    54  41  61 CALM      30.04R
TOLEDO EXPRESS MOCLDY    50  44  80 CALM      30.03S
TOLEDO METCALF PTCLDY    50  41  71 CALM      30.04S
LIMA           CLEAR     54  41  61 SW3       30.04S

$$
AND FOR LAKE MICHIGAN COASTAL AND OPEN LAKE BUOY OBSERVATIONS

STATION/POSITION TEMP    WIND        PRES    VSBY  WAVE
                 AIR SEA DIR/SP/G                  HT/PER
                 (F)     (DEG/KT/KT) (MB)    (MI)  (FT/S)
CALUMET HARBOR    62     240/  4/  6   N/A
MICHIGAN CITY     62     200/  6/  7   N/A
BURNS HARBOR      61     210/  7/  9 1016.9S
SAINT JOSEPH      60     180/  8/ 13 1016.6F
MICHIGAN CITY     54 47                N/A           0

$$
&&



USA.gov is the U.S. government's official web portal to all federal, state and local government web resources and services.